Regional Weather Roundup
Issued by NWS

Home | Current Version | Previous Version | Graphics & Text | Print | Product List | Glossary On
Versions: 1 2 3 4 5 6 7 8 9 10 11 12 13 14 15 16 17 18 19 20 21 22 23 24 25 26 27 28 29 30 31 32 33 34 35 36 37 38 39 40 41 42 43 44 45 46 47 48 49 50
000
ASUS43 KBIS 221202
RWRND

NORTH DAKOTA REGIONAL WEATHER ROUNDUP
NATIONAL WEATHER SERVICE BISMARCK ND
700 AM CDT SUN OCT 22 2017

NOTE: "FAIR" INDICATES FEW OR NO CLOUDS BELOW 12,000 FEET WITH NO
SIGNIFICANT WEATHER AND/OR OBSTRUCTIONS TO VISIBILITY.


NDZ001>003-009>011-017-221300-
NORTHWEST NORTH DAKOTA

CITY           SKY/WX    TMP DP  RH WIND       PRES   REMARKS
WILLISTON      CLEAR     31  25  78 SW7       29.77F
6HR MIN TEMP:  29; 6HR MAX TEMP:  38;

MINOT          CLEAR     38  29  70 SW13      29.76S
MINOT AFB      CLEAR     34  27  77 SW10      29.75R
$$

NDZ018>021-031>035-040>046-221300-
SOUTHWEST NORTH DAKOTA

CITY           SKY/WX    TMP DP  RH WIND       PRES   REMARKS
BISMARCK       CLEAR     35  27  72 SW7       29.87S
6HR MIN TEMP:  33; 6HR MAX TEMP:  40;

DICKINSON      CLEAR     35  20  54 SW12      29.81F
GARRISON         N/A     37  31  78 W12       29.80S
6HR MIN TEMP:  33; 6HR MAX TEMP:  38;

HETTINGER ARPT CLEAR     31  18  58 CALM      29.90S
$$

NDZ004>008-012>016-024-026-027-054-221300-
NORTHEAST NORTH DAKOTA

CITY           SKY/WX    TMP DP  RH WIND       PRES   REMARKS
GRAND FORKS    PTCLDY    43  34  70 SW14      29.76R
GRND FRKS AFB  PTCLDY    41  32  71 W14       29.76R
DEVILS LAKE    CLEAR     41  33  73 W20       29.77R
$$

NDZ022-023-025-028>030-036>039-047>053-221300-
SOUTHEAST NORTH DAKOTA

CITY           SKY/WX    TMP DP  RH WIND       PRES   REMARKS
FARGO          PTCLDY    40  34  79 SW10      29.84S
6HR MIN TEMP:  40; 6HR MAX TEMP:  51;

JAMESTOWN      CLEAR     38  29  70 SW12      29.84R
$$





USA.gov is the U.S. government's official web portal to all federal, state and local government web resources and services.